User: anonymous   Login
Location: Arrodets-la-Barthe
(43.0306°N, 0.2829°E)
Time: 05:23:28
(UTC+00:00)
Language:

SL-16 R/B - Orbit

View from above orbital plane
View from above orbital plane
View from above satellite
View from above satellite

Ground track
Ground track

The orbit data is extracted from the following two-line orbital elements,

1 31793U 07029B   22017.55004209 -.00000291  00000-0 -12685-3 0  9997
2 31793  70.9762 109.8749 0002254 265.5880 184.2819 14.14458808751527
Epoch (UTC): 17 January 2022 13:12:03
Eccentricity: 0.0002254
inclination: 70.9762°
perigee height: 842 km
apogee height: 846 km
right ascension of ascending node: 109.8749°
argument of perigee: 265.5880°
revolutions per day: 14.14458808
mean anomaly at epoch: 184.2819°
orbit number at epoch: 75152

The dashed part of the orbit path shows where the satellite is in the earth's shadow,  

DLR